Flag for U.S.A. Weather past 2 weeks in Dover, Delaware, U.S.A.

Now
78 °F

Sunny.


Feels Like: 80 °F
Forecast: 66 / 75 °F
Wind: 15 mph from East

Location: Dover Air Force Base

Current Time: Aug 23, 2014 at 2:11:22 PM

Latest Report: Aug 23, 2014 at 12:58 PM


Visibility: 10 mi

Pressure: 30.04 "Hg

Humidity: 65%

Dew point: 65 °F

Location of DoverLocation

Historic Weather in Dover — Graph

°F

Dover temperature yesterday

Maximum temperature yesterday: 79 °F (at 2:58 PM)
Minimum temperature yesterday: 69 °F (at 11:58 PM)
Average temperature yesterday: 74 °F

Past Weeks' High & Low Weather Summary

 TemperatureHumidityPressure
High84 °F (Aug 10, 3:58 PM)100% (Aug 10, 2:58 AM)30.15 "Hg (Aug 10, 2:58 AM)
Low60 °F (Aug 15, 3:58 AM)39% (Aug 10, 1:58 PM)29.72 "Hg (Aug 13, 4:58 AM)
Average73 °F78%29.96 "Hg
* Reported Aug 8 12:58 PM — Aug 23 12:58 PM, Dover, Weather by CustomWeather, © 2014

Note: Actual official high and low records may vary slightly from our data, if they occured in-between our weather recording intervals... More about our weather records

Advertising

Dover weather history for previous 24 hours

 ConditionsComfort  
Time TempWeatherWind HumidityBarometerVisibility
12:58 PM
Aug 23
78 °FSunny.15 mph65%30.04 "Hg10 mi
11:58 AM76 °FScattered clouds.16 mph70%30.04 "Hg10 mi
11:03 AM75 °FBroken clouds.15 mph78%30.03 "Hg10 mi
9:58 AM74 °FPassing clouds.15 mph80%30.03 "Hg10 mi
8:58 AM72 °FPassing clouds.12 mph87%30.03 "Hg10 mi
7:58 AM70 °FPartly sunny.8 mph100%30.02 "Hg10 mi
7:03 AM68 °FPassing clouds.6 mph100%30.00 "Hg10 mi
6:58 AM68 °FPassing clouds.6 mph100%30.01 "Hg10 mi
6:03 AM68 °FPassing clouds.7 mph100%29.99 "Hg10 mi
4:58 AM68 °FPassing clouds.5 mph98%29.99 "Hg10 mi
3:58 AM67 °FClear.6 mph98%29.99 "Hg10 mi
2:58 AM67 °FClear.3 mph95%30.00 "Hg10 mi
1:58 AM67 °FClear.2 mph92%30.00 "Hg10 mi
12:58 AM68 °FPassing clouds.5 mph90%30.01 "Hg10 mi
11:58 PM
Aug 22
69 °FClear.5 mph85%30.01 "Hg10 mi
10:58 PM69 °FClear.3 mph86%30.01 "Hg10 mi
9:58 PM72 °FOvercast.6 mph83%30.01 "Hg10 mi
8:58 PM73 °FOvercast.6 mph78%30.00 "Hg10 mi
7:58 PM73 °FOvercast.6 mph82%29.99 "Hg10 mi
6:58 PM74 °FMore clouds than sun.9 mph80%29.99 "Hg10 mi
5:58 PM75 °FOvercast.5 mph81%29.97 "Hg10 mi
5:00 PM75 °FBroken clouds.8 mph78%29.96 "Hg10 mi
4:58 PM75 °FDrizzle. Broken clouds.7 mph80%29.96 "Hg10 mi
3:58 PM78 °FCloudy.10 mph75%29.97 "Hg10 mi
2:58 PM79 °FMostly cloudy.8 mph77%29.98 "Hg10 mi
Weather by CustomWeather, © 2014

See weather overviewHow to use our weather pages